DW0112 Weather Reports


time (UTC)temp
C
wind
direction
speed
KPH
gust
KPH
rain 1hr
cm
rain 24hr
cm
rain mn
cm
humidity
%
barometer
mb
20260504015705 18 331 12.9 24.1 0.00 0.25 0.00 62 1009.8
20260504015205 18 315 9.7 27.4 0.00 0.25 0.00 63 1009.9
20260504013205 18 333 11.3 32.2 0.00 0.30 0.00 64 1010.1
20260504011205 18 320 9.7 32.2 0.00 0.38 0.00 64 1010.1
20260504004205 18 340 9.7 22.5 0.00 0.48 0.00 66 1010.3
20260504003705 18 314 11.3 27.4 0.00 0.51 0.00 66 1010.2
20260504000704 17 318 9.7 20.9 0.00 0.71 0.00 67 1010.3
20260503235205 17 306 11.3 25.7 0.00 0.76 0.00 68 1010.4
20260503234704 17 321 9.7 19.3 0.00 0.79 0.00 68 1010.4
20260503234205 16 335 9.7 22.5 0.00 0.79 0.00 69 1010.5
20260503231704 16 332 8.0 19.3 0.00 0.79 0.00 70 1010.6
20260503231204 16 324 9.7 19.3 0.00 0.79 0.00 70 1010.6
20260503230204 15 307 4.8 16.1 0.00 0.79 0.00 72 1010.6
20260503225705 15 329 4.8 24.1 0.00 0.79 0.79 72 1010.5
20260503225205 15 326 4.8 16.1 0.00 0.79 0.79 73 1010.6
20260503223706 15 336 4.8 16.1 0.00 0.79 0.79 73 1010.6
20260503222705 15 329 4.8 14.5 0.00 0.79 0.79 75 1010.7
20260503221205 13 319 4.8 11.3 0.00 0.79 0.79 80 1010.8
20260503220204 13 328 4.8 11.3 0.00 0.79 0.79 81 1010.8
20260503215704 13 320 4.8 9.7 0.00 0.79 0.79 82 1010.7
20260503215204 12 5 4.8 9.7 0.00 0.79 0.79 82 1010.6
20260503214204 12 339 3.2 12.9 0.00 0.79 0.79 82 1010.8
20260503213705 12 328 3.2 8.0 0.00 0.79 0.79 83 1010.8
20260503213205 12 344 3.2 4.8 0.00 0.79 0.79 83 1010.7
20260503211704 12 355 3.2 8.0 0.00 0.79 0.79 84 1010.5
20260503210205 12 342 3.2 12.9 0.00 0.79 0.79 84 1010.6
20260503205204 12 336 1.6 9.7 0.00 0.79 0.79 85 1010.5
20260503204705 12 12 1.6 8.0 0.00 0.79 0.79 85 1010.5
20260503204204 12 21 3.2 8.0 0.00 0.79 0.79 85 1010.5
20260503203205 12 328 1.6 4.8 0.00 0.79 0.79 84 1010.3
20260503202705 12 347 1.6 4.8 0.00 0.79 0.79 84 1010.3
20260503202204 12 31 1.6 4.8 0.00 0.79 0.79 84 1010.3
20260503200204 12 46 0.0 3.2 0.00 0.79 0.79 84 1010.3
20260503195705 12 29 1.6 4.8 0.00 0.79 0.79 84 1010.4
20260503195205 12 22 0.0 4.8 0.00 0.79 0.79 84 1010.4
20260503194704 12 8 3.2 8.0 0.00 0.79 0.79 84 1010.4
20260503194205 12 341 3.2 9.7 0.00 0.79 0.79 85 1010.4
20260503193705 12 347 3.2 4.8 0.00 0.79 0.79 85 1010.4
20260503193204 12 341 4.8 14.5 0.00 0.79 0.79 85 1010.3
20260503192204 12 11 4.8 11.3 0.00 0.79 0.79 85 1010.4
20260503191705 12 351 3.2 9.7 0.00 0.79 0.79 85 1010.5
20260503191205 12 11 3.2 8.0 0.00 0.79 0.79 85 1010.5
20260503190704 12 22 3.2 9.7 0.00 0.79 0.79 85 1010.6
20260503190205 12 346 3.2 9.7 0.00 0.79 0.79 86 1010.7
20260503183705 12 325 3.2 8.0 0.00 0.81 0.79 86 1010.8
20260503183206 12 338 3.2 11.3 0.00 0.81 0.79 86 1010.8
20260503182205 12 2 3.2 8.0 0.00 0.81 0.79 86 1010.9
20260503174704 12 2 3.2 9.7 0.00 0.81 0.79 86 1010.9
20260503174205 12 7 4.8 8.0 0.00 0.81 0.79 86 1011.0
20260503173704 12 0 3.2 12.9 0.00 0.81 0.79 86 1011.1
20260503172705 12 335 1.6 9.7 0.00 0.81 0.79 85 1011.1
20260503160204 13 335 1.6 8.0 0.00 0.81 0.79 84 1011.6
20260503150704 13 358 3.2 11.3 0.00 0.81 0.79 84 1011.4
20260503150205 13 36 1.6 4.8 0.00 0.81 0.79 84 1011.4
20260503130706 15 332 3.2 14.5 0.00 0.81 0.79 81 1011.5
20260503130205 15 337 6.4 16.1 0.00 0.81 0.79 81 1011.6
20260503100206 15 358 3.2 4.8 0.00 0.81 0.79 78 1012.1
20260503090205 16 339 4.8 12.9 0.00 0.81 0.79 79 1011.2
20260503081205 16 319 3.2 9.7 0.00 0.81 0.79 81 1010.4
20260503080205 16 328 3.2 4.8 0.00 0.81 0.79 80 1010.3
20260503072705 16 284 4.8 12.9 0.00 0.81 0.79 78 1010.1
20260503070705 16 295 4.8 14.5 0.00 0.81 0.79 82 1009.9
20260503070205 16 300 8.0 16.1 0.00 0.81 0.79 84 1009.8
20260503054205 17 25 1.6 4.8 0.05 0.81 0.79 89 1009.8
20260503053706 17 336 3.2 11.3 0.05 0.81 0.79 89 1009.8
20260503052706 17 271 0.0 1.6 0.05 0.79 0.76 89 1009.7
20260503051705 17 271 0.0 4.8 0.15 0.79 0.76 88 1009.5
20260503051205 17 259 0.0 4.8 0.23 0.79 0.76 88 1009.6
20260503050705 17 259 0.0 3.2 0.23 0.79 0.76 88 1009.5
20260503050205 17 259 0.0 3.2 0.23 0.79 0.74 88 1009.6
20260503045705 17 259 1.6 3.2 0.20 0.76 0.71 88 1009.5
20260503045205 17 260 3.2 8.0 0.20 0.76 0.71 87 1009.5
20260503044705 17 268 3.2 4.8 0.20 0.76 0.71 87 1009.7
20260503044205 17 246 4.8 8.0 0.20 0.76 0.71 87 1009.6
20260503043705 17 281 4.8 9.7 0.20 0.76 0.71 86 1009.5
20260503043206 17 283 6.4 16.1 0.18 0.74 0.71 85 1009.6
20260503042705 17 270 8.0 16.1 0.18 0.74 0.71 84 1009.5
20260503041705 18 278 11.3 19.3 0.08 0.64 0.61 82 1009.4
20260503041206 18 251 6.4 14.5 0.03 0.58 0.53 82 1009.3
20260503040205 19 272 9.7 19.3 0.00 0.56 0.51 81 1009.2
20260503035705 19 276 3.2 11.3 0.00 0.56 0.51 81 1009.2
20260503034704 19 317 6.4 12.9 0.00 0.56 0.51 81 1009.1
20260503033706 20 306 8.0 19.3 0.00 0.56 0.51 80 1009.1
20260503033205 20 327 9.7 19.3 0.00 0.56 0.51 80 1009.1
20260503030206 20 320 11.3 20.9 0.00 0.56 0.51 81 1009.5
20260503024205 20 323 8.0 14.5 0.00 0.56 0.51 82 1009.6
20260503023705 21 299 3.2 22.5 0.00 0.56 0.51 85 1009.6
20260503023205 20 316 8.0 22.5 0.05 0.56 0.51 85 1009.4
20260503022706 20 310 4.8 14.5 0.05 0.56 0.51 89 1009.5
20260503022205 18 315 6.4 19.3 0.08 0.56 0.51 90 1009.6
20260503021204 18 315 6.4 14.5 0.13 0.56 0.51 91 1009.8
20260503020704 18 323 4.8 20.9 0.13 0.56 0.51 91 1009.8